Location: Kott?ru
(16.6209°N, 80.6208°E)
Time: 20:37:38
(UTC+00:00)

Cosmos 2322 Rocket - Pass Details

Date: 18 September 2020
Orbit: 831 x 852 km, 71.0° (Epoch: 27 October)

Event Time Altitude Azimuth Distance (km) Brightness Sun altitude
Exits shadow 23:10:37 33° 254° (WSW) 1,373 2.7 -18.9°
Maximum altitude 23:12:08 40° 289° (WNW) 1,228 2.6 -18.5°
Drops below altitude 10° 23:17:24 10° 357° (N) 2,460 4.7 -17.3°
Sets 23:20:00 0° 5° (N) 3,399 5.5 -16.6°
